Find Kosmos-1481

NORAD ID: 14182 Int'l Des: 1983-070 Owner: PVO Country: SU operational
MEOELLIPTICALHEO_ELLIPTICALSEMI_SYNC

Current View

Loading 3D Globe...

About Kosmos-1481

Description loading...

Upcoming Passes

Passes for default location (London). Set your location on the main map for personalized predictions.

Altitude History

Loading altitude history...

Two-Line Element Set

1 14182U 83070A 26149.19415987 -.00000029 00000-0 00000+0 0 9991
2 14182 70.5648 253.2192 5625553 229.0902 66.6075 2.03571317239718
Epoch: May 29, 2026 • Age: 24 hours

Current Status

Altitude 26086.4 km
Velocity 3.07 km/s
Sub-Earth Point 10.84°N, 63.46°W
Launch Date Jul 8, 1983
Age 42.8 years
Type other

Technical Details

Classification Payload
Mass 1250.00 kg
Dry Mass 1150.00 kg
Total Mass 1250.00 kg
Length 4.00 m
Diameter 2.00 m
Span 5.00 m
Shape Cyl + 2 Pan
Manufacturer NPOL/KOMET
Bus Type Oko
Phase Status In Orbit
Owner/State PVO/SU

Most Searched